Weather History for YMML - March, 2013

Change the Weather History Date:

Wednesday, March 27, 2013

  Actual Average Record
Temperature  
Mean Temperature 80 °F -  
Max Temperature 95 °F 67 °F 95 °F (2013)
Min Temperature 64 °F 48 °F 46 °F (2005)
Cooling Degree Days 16    
Growing Degree Days 30 (Base 50)    
Moisture  
Dew Point 46 °F    
Average Humidity 31    
Maximum Humidity 83    
Minimum Humidity 8    
Precipitation  
Precipitation 0.16 in 0.06 in - ()
Sea Level Pressure  
Sea Level Pressure 29.79 in    
Wind  
Wind Speed 18 mph ()    
Max Wind Speed 31 mph    
Max Gust Speed 44 mph    
Visibility 10.7 miles    
Events Rain    
Averages and records for this station are not official NWS values.
T = Trace of Precipitation, MM = Missing Value Source: Averaged Metar Reports

Daily Weather History Graph

Daily Weather History Graph

Search for Another Location

Airport or City:

Trip Planner

Search our weather history database for the weather conditions in past years. The results will help you decide how hot, cold, wet, or windy it might be!

Date:

Astronomy

Mar. 27, 2013 Rise Set
Actual Time 7:29 AM AEDT 7:21 PM AEDT
Civil Twilight 7:03 AM AEDT 7:47 PM AEDT
Nautical Twilight 6:33 AM AEDT 8:18 PM AEDT
Astronomical Twilight 6:02 AM AEDT 8:48 PM AEDT
Moon 7:01 PM AEDT (3/27) 7:03 AM AEDT (3/27)
Length of Visible Light 12h 44m
Length of Day
11h 52m
Full, 100% of the Moon is Illuminated
Mar 27
Full
Mar 27
Full
Apr 3
Last Quarter
Apr 10
New
Apr 18
First Quarter

Hourly Weather History & Observations

Time (AEDT) Temp. Dew Point Humidity Pressure Visibility Wind Dir Wind Speed Gust Speed Precip Events Conditions
12:00 AM 72 °F 48 °F 32% 29.89 in 25 mi North 12.7 mph - -   Partly Cloudy
12:00 AM 71.6 °F 48.2 °F 43% 29.89 in - North 12.7 mph - N/A   Clear
12:30 AM 71.6 °F 48.2 °F 43% 29.89 in - North 12.7 mph - N/A   Clear
1:00 AM 73.4 °F 46.4 °F 38% 29.86 in - North 15.0 mph - N/A   Clear
1:30 AM 69.8 °F 48.2 °F 46% 29.86 in - North 18.4 mph - N/A   Clear
2:00 AM 71 °F 47 °F 30% 29.85 in - North 17.3 mph - -  
2:00 AM 71.6 °F 46.4 °F 41% 29.86 in - North 17.3 mph - N/A   Clear
2:30 AM 71.6 °F 46.4 °F 41% 29.83 in - North 18.4 mph - N/A   Clear
3:00 AM 73 °F 46 °F 27% 29.83 in 25 mi North 18.4 mph - -   Partly Cloudy
3:00 AM 73.4 °F 46.4 °F 38% 29.83 in - North 18.4 mph - N/A   Clear
3:30 AM 73.4 °F 46.4 °F 38% 29.83 in - North 19.6 mph - N/A   Clear
4:00 AM 73.4 °F 44.6 °F 36% 29.80 in - North 19.6 mph - N/A   Clear
4:30 AM 73.4 °F 44.6 °F 36% 29.80 in - North 20.7 mph - N/A   Clear
5:00 AM 74 °F 45 °F 24% 29.81 in - North 19.6 mph - -  
5:00 AM 73.4 °F 44.6 °F 36% 29.80 in - North 19.6 mph - N/A   Clear
5:30 AM 73.4 °F 44.6 °F 36% 29.80 in - North 21.9 mph - N/A   Clear
6:00 AM 72 °F 45 °F 27% 29.81 in 25 mi North 23.0 mph - -   Partly Cloudy
6:00 AM 73.4 °F 44.6 °F 36% 29.80 in - North 23.0 mph - N/A   Clear
6:30 AM 71.6 °F 46.4 °F 41% 29.80 in - North 20.7 mph - N/A   Clear
7:00 AM 71.6 °F 46.4 °F 41% 29.80 in - North 18.4 mph - N/A   Clear
7:30 AM 73.4 °F 46.4 °F 38% 29.83 in - North 18.4 mph - N/A   Clear
8:00 AM 73 °F 46 °F 27% 29.82 in - North 12.7 mph - -  
8:00 AM 73.4 °F 46.4 °F 38% 29.83 in - North 12.7 mph - N/A   Clear
8:09 AM 73.4 °F 46.4 °F 38% 29.80 in - North 20.7 mph 35.7 mph N/A   Clear
8:30 AM 75.2 °F 44.6 °F 34% 29.80 in - North 25.3 mph - N/A   Clear
9:00 AM 76 °F 44 °F 21% 29.79 in 19 mi North 29.9 mph - -   Partly Cloudy
9:00 AM 77.0 °F 44.6 °F 32% 29.80 in - North 29.9 mph - N/A   Clear
9:10 AM 77.0 °F 46.4 °F 34% 29.80 in - North 28.8 mph 40.3 mph N/A   Clear
9:30 AM 77.0 °F 44.6 °F 32% 29.80 in - North 26.5 mph - N/A   Clear
9:49 AM 78.8 °F 44.6 °F 30% 29.80 in - North 29.9 mph 41.4 mph N/A   Clear
10:00 AM 78.8 °F 44.6 °F 30% 29.80 in - North 31.1 mph - N/A   Clear
10:30 AM 80.6 °F 44.6 °F 28% 29.77 in - North 26.5 mph - N/A   Clear
11:00 AM 82 °F 45 °F 17% 29.81 in - North 26.5 mph - -  
11:00 AM 82.4 °F 44.6 °F 26% 29.80 in - North 26.5 mph - N/A   Clear
11:30 AM 84.2 °F 46.4 °F 27% 29.80 in - North 25.3 mph - N/A   Clear
12:00 PM 85 °F 48 °F 18% 29.79 in 19 mi North 29.9 mph - -   Partly Cloudy
12:00 PM 86.0 °F 48.2 °F 27% 29.80 in - North 29.9 mph - N/A   Clear
12:30 PM 86.0 °F 50.0 °F 29% 29.80 in - North 23.0 mph - N/A   Clear
1:00 PM 89.6 °F 48.2 °F 24% 29.77 in - North 24.2 mph - N/A   Clear
1:28 PM 91.4 °F 48.2 °F 23% 29.74 in - North 27.6 mph 39.1 mph N/A   Clear
1:30 PM 91.4 °F 46.4 °F 21% 29.74 in - North 27.6 mph 39.1 mph N/A   Clear
2:00 PM 92 °F 48 °F 14% 29.74 in - North 28.8 mph - -  
2:00 PM 91.4 °F 48.2 °F 23% 29.74 in - North 28.8 mph - N/A   Clear
2:30 PM 95.0 °F 42.8 °F 16% 29.71 in - North 28.8 mph - N/A   Clear
3:00 PM 92 °F 46 °F 12% 29.71 in 19 mi North 25.3 mph - -   Partly Cloudy
3:00 PM 91.4 °F 46.4 °F 21% 29.71 in - North 25.3 mph - N/A   Clear
3:30 PM 95.0 °F 41.0 °F 15% 29.71 in - North 25.3 mph - N/A   Clear
4:00 PM 93.2 °F 41.0 °F 16% 29.68 in - North 28.8 mph - N/A   Clear
4:20 PM 95.0 °F 39.2 °F 14% 29.68 in - North 29.9 mph 43.7 mph N/A   Clear
4:30 PM 95.0 °F 39.2 °F 14% 29.68 in - North 26.5 mph - N/A   Clear
5:00 PM 94 °F 40 °F 8% 29.69 in - NNW 21.9 mph - -  
5:00 PM 93.2 °F 41.0 °F 16% 29.68 in - NNW 21.9 mph - N/A   Clear
5:30 PM 93.2 °F 41.0 °F 16% 29.68 in - North 18.4 mph - N/A   Clear
6:00 PM 91 °F 41 °F 10% 29.70 in 16 mi West 18.4 mph - -   Mostly Cloudy
6:00 PM 91.4 °F 41.0 °F 17% 29.71 in - West 18.4 mph - N/A   Clear
6:30 PM 89.6 °F 42.8 °F 20% 29.74 in - WNW 17.3 mph - N/A   Clear
7:00 PM 87.8 °F 42.8 °F 21% 29.74 in 6.2 mi WNW 15.0 mph - N/A   Unknown
7:30 PM 87.8 °F 44.6 °F 22% 29.74 in 6.2 mi NW 10.4 mph - N/A Rain Light Rain Showers
8:00 PM 86 °F 45 °F 14% 29.77 in - NW 9.2 mph - -  
8:00 PM 86.0 °F 44.6 °F 23% 29.77 in 6.2 mi NW 9.2 mph - N/A   Unknown
8:30 PM 84.2 °F 44.6 °F 25% 29.77 in 6.2 mi West 11.5 mph - N/A   Unknown
9:00 PM 84 °F 46 °F 16% 29.80 in 16 mi West 13.8 mph - -   Mostly Cloudy
9:00 PM 84.2 °F 46.4 °F 27% 29.80 in - West 13.8 mph - N/A   Clear
9:30 PM 77.0 °F 57.2 °F 50% 29.83 in 6.2 mi SW 19.6 mph - N/A Rain Light Rain Showers
10:00 PM 69.8 °F 60.8 °F 73% 29.86 in 6.2 mi South 11.5 mph - N/A   Unknown
10:30 PM 68.0 °F 59.0 °F 73% 29.89 in - SSE 9.2 mph - N/A   Clear
11:00 PM 67 °F 60 °F 73% 29.91 in - South 12.7 mph - -  
11:00 PM 66.2 °F 60.8 °F 83% 29.92 in 6.2 mi South 12.7 mph - N/A Rain Light Rain
11:30 PM 64.4 °F 59.0 °F 83% 29.89 in 6.2 mi South 12.7 mph - N/A Rain Light Rain